www.pogodaiklimat.ru

Погода и климат >> Архив погоды >> Иран >> Bandar Deyr


ПОГОДА в Bandar Deyr

  • Прогноз погоды в Bandar Deyr
  • Монитор погоды в Bandar Deyr
  • Климат города

АРХИВ ПОГОДЫ в Bandar Deyr

Время (UTC), дата Ветер
(напр.,м/с)
 
Видим.   Явления Облачность Т
(С)
Тd
(С)
f
(%)
Тe
(С)
Тes
(С)
Комфортность P
(гПа)
Po
(гПа)
Тmin
(С)
Tmax
(С)
R
(мм)
R24
(мм)
S
(см)
12 15.11 ЮЗ 2 10 км ясно +28.6 1013.0 1012.5
15 15.11 Ю 2 10 км ясно +27.0 +12.7 41 +29 +29 жарко 1013.2 1012.7 +29.7
18 15.11 С 2 10 км ясно +23.0 +12.1 50 +26 +26 жарко 1014.0 1013.5
21 15.11 СЗ 2 10 км ясно +21.6 +10.7 50 +23 +23 комфорт 1013.9 1013.1
00 16.11 СЗ 2 10 км ясно +20.8 +10.5 52 +23 +23 комфорт 1013.7 1013.2
03 16.11 С 2 10 км ясно +19.0 +9.6 54 +20 +20 1014.5 1014.0 +19.0
06 16.11 С 2 10 км ясно +25.6 1016.2 1015.7
09 16.11 Ю 2 10 км ясно +27.6 +16.0 49 +31 +41 душно 1015.2 1014.7
12 16.11 Ю 3 10 км ясно +27.2 1013.7 1013.2
15 16.11 СЗ 2 10 км ясно +25.4 +13.9 49 +28 +28 жарко 1014.3 1013.8 +28.2
18 16.11 С 2 10 км ясно +23.0 +13.8 56 +26 +26 жарко 1015.4 1014.9
21 16.11 С 2 10 км ясно +20.2 +9.8 51 +22 +22 комфорт 1015.2 1014.7
00 17.11 С 2 10 км ясно +19.0 +7.6 48 +20 +20 1015.0 1014.5
03 17.11 С 2 10 км ясно +16.4 +5.6 49 +17 +17 1016.0 1015.5 +16.2
06 17.11 С 2 10 км ясно +25.1 +8.5 35 1017.7 1017.3
09 17.11 ЮЗ 2 10 км ясно +29.2 +11.2 33 +30 +39 жарко 1015.9 1015.4
12 17.11 З 2 10 км ясно +29.5 +8.6 27 +29 +32 жарко 1014.2 1013.7
15 17.11 СЗ 1 10 км ясно +25.5 +6.8 30 +25 +25 комфорт 1015.5 1015.0 +29.5
18 17.11 С 2 10 км ясно +22.4 +7.8 39 +23 +23 комфорт 1016.9 1016.4
21 17.11 СЗ 2 10 км ясно +21.9 +11.9 53 +24 +24 комфорт 1015.9
03 18.11 С 2 10 км ясно +17.5 +9.7 60 +18 +18 1017.1 1016.6 +17.4
06 18.11 СЗ 2 10 км ясно +27.0 1019.5 1019.0
09 18.11 ЮЗ 2 10 км ясно +28.5 +13.1 39 +30 +40 жарко 1018.5 1018.1
12 18.11 ЮЗ 2 10 км ясно +28.7 1017.5 1017.1
15 18.11 СЗ 1 10 км ясно +25.9 +13.8 47 +28 +28 жарко 1017.8 1017.4 +29.2
18 18.11 С 2 10 км ясно +23.2 +12.2 50 +26 +26 жарко 1019.5 1019.0
21 18.11 С 3 10 км ясно +21.0 +11.2 53 +23 +23 комфорт 1019.5 1018.8
00 19.11 СЗ 2 10 км ясно +21.6 +12.0 54 +24 +24 комфорт 1018.8 1018.4
03 19.11 СЗ 2 10 км 3/0
[Ci fib]
+19.1 +10.8 59 +21 +21 комфорт 1018.5 1018.1 +18.4
06 19.11 штиль 0 10 км 3/0
[Ci fib]
+26.6 1020.2 1019.8
09 19.11 ЮЗ 2 10 км 4/0
[Ci fib]
+28.6 +16.0 46 +32 +40 душно 1019.3 1018.9
12 19.11 Ю 3 10 км 10/0
[As trans]
+27.3 1018.0 1017.5
15 19.11 штиль 0 10 км 9/0
[Ac As]
+25.8 +16.5 56 +29 +29 душно 1018.3 1017.9 +29.2
18 19.11 С 2 10 км 10/0
[As trans]
+24.2 +15.8 59 +27 +27 жарко 1018.7 1018.3
21 19.11 С 2 10 км 5/0
[Ac trans]
+23.2 +14.8 59 +27 +27 душно 1018.2 1017.8
00 20.11 С 2 10 км 9/0
[Ac As]
+22.5 +13.8 58 +26 +26 жарко 1017.4 1017.0
03 20.11 С 2 10 км гроза без осадков 8/8 900 м
[Cb cap]
+22.8 +13.5 56 +26 +26 жарко 1017.9 1017.5 +22.2
06 20.11 В 3 8000 м в посл. час дождь {гроза} 9/6 600 м
[Cb cap Ac As]
+26.2 +18.5 63 +31 +32 очень
душно
1019.5 1019.1 0.0
09 20.11 ЮВ 6 10 км 9/6 900 м
[Cb cap Ac As]
+27.1 +19.9 65 +33 +34 очень
душно
1017.9 1017.5
12 20.11 ЮВ 6 8000 м гроза без осадков 9/6 600 м
[Cb cap Ac As]
+26.8 +18.8 62 +32 +32 очень
душно
1016.2 1015.7
15 20.11 штиль 0 8000 м в посл. час гроза 8/6 900 м
[Cb cap Ac As]
+25.3 +19.3 69 +30 +30 душно 1017.2 1016.7 +28.4
18 20.11 С 2 8000 м в посл. час гроза 8/3 1050 м
[Sc Ac As]
+23.3 +18.6 75 +29 +29 душно 1017.0 1016.5
21 20.11 С 2 8000 м мгла {гроза} 6/3 1050 м
[Sc Ac As]
+22.9 +17.6 72 +28 +28 душно 1016.2 1015.7
00 21.11 С 2 10 км 8/3 1050 м
[Sc Ac As]
+21.6 +17.3 77 +26 +26 душно 1015.2 1014.7
03 21.11 С 2 10 км 8/3 1050 м
[Sc Ac As]
+21.9 +16.8 73 +26 +26 душно 1015.2 1014.7 +20.8
06 21.11 СВ 2 10 км 9/4 1000 м
[Sc Ac As]
+25.6 1016.2 1015.7
09 21.11 ЮВ 6 10 км 10/5 750 м
[Cb calv Ac As]
+27.8 +20.6 65 +35 +35 очень
душно
1014.4 1013.9
12 21.11 Ю 5 10 км 10/5 600 м
[Cb calv Ac As]
+27.6 1012.7 1012.2
15 21.11 З 3 10 км 10/4 1050 м
[Sc Ac As]
+24.7 +16.4 60 +28 +28 душно 1013.5 1013.0 +28.2
18 21.11 С 2 10 км 10/4 1050 м
[Sc Ac As]
+22.2 +16.5 70 +26 +26 душно 1013.2 1012.7
21 21.11 В 2 7000 м дождь 10/6 750 м
[Cb calv As op]
+24.2 +18.2 69 +29 +29 душно 1012.0 1011.5
03 22.11 В 3 10 км {гроза, дождь} 8/4 1050 м
[Sc Ac As]
+22.1 +17.5 75 +27 +27 душно 1012.0 1011.5 +19.6

 

Местоположение метеостанции Bandar Deyr (Иран): широта 27.83 долгота 51.93 высота над уровнем моря 4 м.

В архиве по умолчанию представлена погода в Bandar Deyr за последнюю неделю. Архивные данные за месяц целиком и за предыдущие месяцы, начиная с января 2011 года, Вы можете получить, выбрав интересующий диапазон дат из раскрывающегося списка и нажав кнопку "Ввод!".

Внимание! Время в таблицах - всемирное. Для получения местного времени необходимо прибавить поправку, которая в Bandar Deyr равна 3.5 ч.

Смотрите также архив погоды в соседних городах и на ближайших метеорологических станциях:

Погода в Bushehr (Иран) (163 км)
Погода в Bushehr Airport (Иран) (167 км)
Погода в Shiraz (Иран) (198 км)
Погода в Fasa (Иран) (213 км)
Погода в Bahrain (Бахрейн) (215 км)
Погода в Khark (Иран) (224 км)
Погода в Dhahran (Саудовская Аравия) (246 км)
Погода в Kish Island (Иран) (251 км)
Погода в King Fahd Int Airport (Саудовская Аравия) (259 км)
Погода в Hamad Int Airport (Катар) (287 км)

Пояснения к столбцам:

Ветер - указаны скорость ветра в м/с - средняя за 10 мин, порывы в срок и между сроками (в фигурных скобках) и направление, откуда дует ветер: С - северный, СВ - северо-восточный, В - восточный, ЮВ - юго-восточный, Ю - южный, ЮЗ - юго-западный, З - западный, СЗ - северо-западный.
Видимость - горизонтальная дальность видимости в метрах или километрах. При видимости от 1 до 10 км при отсутствии осадков обычно наблюдается дымка, при ухудшении видимости до 1 км и менее - туман. В сухую погоду видимость может ухудшаться дымом, пылью или мглою.
Явления - указаны атмосферные явления, наблюдавшиеся в срок или в последний час перед сроком; фигурными скобками обозначены явления, наблюдавшиеся между сроками (за 1-3 часа до срока); квадратными скобками обозначены град или гололедные отложения с указанием их диаметра в мм.
Облачность - указаны через наклонную черту общая и нижняя облачность в баллах и высота нижней границы облаков в метрах; квадратными скобками обозначены формы облаков: Ci - перистые, Cs - перисто-слоистые, Cc - перисто-кучевые, Ac - высококучевые, As - высокослоистые, Sc - слоисто-кучевые, Ns - слоисто-дождевые, Cu - кучевые, Cb - кучево-дождевые. Подробнее классификацию облаков см. в Атласе облаков (PDF).
T - Температура воздуха - температура, измеренная на высоте 2 м над землей.
Td - Температура точки росы - температура, при понижении до которой содержащийся в воздухе водяной пар достигнет насыщения.
f - Относительная влажность воздуха - влажноcть воздуха, измеренная на высоте 2 м над землей.
Te - Эффективная температура - температура, которую ощущает одетый по сезону человек в тени. Характеристика душности погоды. При расчете учитывается влияние влажности воздуха и скорости ветра на теплоощущения человека.
Tes - Эффективная температура на солнце - температура, которую ощущает человек, с поправкой на солнечный нагрев. Характеристика знойности погоды. Зависит от высоты солнца над горизонтом, облачности и скорости ветра. Ночью, в пасмурную погоду, а также при ветре 12 м/с и более поправка равна нулю.
P - Атмосферное давление - приведенное к уровню моря атмосферное давление.
Po - Атмосферное давление - измеренное на уровне метеостанции атмосферное давление.
Tmin - Минимальная температура - минимум температуры воздуха на высоте 2 м над землей.
Tmax - Максимальная температура - максимум температуры воздуха на высоте 2 м над землей.
R - Количество осадков - Количество выпавших осадков за период времени, мм. При наведении курсора мыши на число - период времени, за который выпало указанное количество осадков.
R24 - Количество осадков - Количество выпавших осадков за 24 часа, мм.
S - Снежный покров - Высота снежного покрова, см. При наведении курсора мыши на число - состояние снежного покрова и степень покрытия местности в баллах.